Location: Cheverell
(51.2878°N, 2.0269°W)
Time: 01:11:24
(UTC+00:00)

Daily predictions for brighter satellites

Satellite Brightness Start Highest point End
(mag) Time Altitude Azimuth Time Altitude Azimuth Time Altitude Azimuth
ATLAS CENTAUR R/B 3.0 00:01:09 10° NW 00:02:51 24° NNE 00:05:18 10° E
Lacrosse 5 3.8 00:00:35 10° W 00:02:58 13° WSW 00:03:12 13° SW
STARLINK-1215 3.2 00:00:53 10° WNW 00:04:00 64° N 00:07:07 10° E
STARLINK-1225 3.5 00:00:05 10° WSW 00:04:15 87° SSE 00:08:24 10° ENE
STARLINK-1217 3.2 00:02:40 10° WNW 00:05:46 65° N 00:08:53 10° E
Cosmos 292 Rocket 3.7 00:03:39 33° SSW 00:05:51 79° ESE 00:10:43 10° NNE
STARLINK-1229 3.2 00:03:35 10° WNW 00:06:42 65° N 00:09:48 10° E
STARLINK-1271 3.9 00:02:55 10° W 00:07:03 68° N 00:11:12 10° E
STARLINK-1104 3.9 00:03:30 10° WNW 00:07:29 45° SSW 00:08:13 40° S
STARLINK-1270 3.2 00:04:27 10° WNW 00:07:33 65° N 00:10:41 10° E
STARLINK-1230 3.5 00:05:03 10° WSW 00:09:12 89° SSW 00:13:23 10° ENE
S3M 4.1 00:03:08 10° NNW 00:09:13 66° W 00:12:36 28° SSW
STARLINK-1189 3.2 00:06:17 10° WNW 00:09:24 66° N 00:12:31 10° E
Cosmos 1726 2.0 00:06:08 10° NNW 00:09:51 82° W 00:10:54 45° S
STARLINK-1188 3.2 00:07:10 10° WNW 00:10:18 66° N 00:13:25 10° E
STARLINK-1235 3.0 00:07:53 10° WNW 00:10:59 71° N 00:14:04 10° E
Cosmos 1655 Rocket 4.0 00:07:30 27° SSW 00:11:07 83° W 00:17:25 10° N
STARLINK-1187 3.1 00:08:17 10° WNW 00:11:24 69° N 00:14:29 10° E
STARLINK-1154 3.9 00:07:54 10° W 00:12:03 68° N 00:16:11 10° E
GEOS 3 Rocket 3.8 00:07:39 13° SE 00:12:23 76° NE 00:17:42 10° NW
STARLINK-1144 4.0 00:08:30 10° WNW 00:12:27 42° SSW 00:13:00 40° S
SL-27 R/B 3.5 00:09:25 10° NW 00:12:39 31° WSW 00:13:10 29° WSW
STARLINK-1191 3.1 00:09:39 10° WNW 00:12:45 67° N 00:15:50 10° E
Cosmos 2228 3.5 00:09:19 10° N 00:13:30 51° ENE 00:15:32 27° SE
SJ 16-02 4.3 00:11:46 10° NNE 00:13:35 12° NE 00:15:25 10° ENE
STARLINK-1221 3.1 00:10:32 10° WNW 00:13:37 67° N 00:16:43 10° E
COSMOS 2455 3.9 00:11:39 23° SSE 00:14:06 31° ESE 00:19:16 10° NE
STARLINK-1243 3.6 00:10:02 10° WSW 00:14:11 88° NNW 00:18:22 10° ENE
STARLINK-1222 3.1 00:11:25 10° WNW 00:14:31 68° N 00:17:37 10° E
Cosmos 2263 4.2 00:12:25 29° SSW 00:15:16 70° ESE 00:20:53 10° NNE
STARLINK-1214 3.1 00:12:20 10° WNW 00:15:26 68° N 00:18:32 10° E
STARLINK-1197 3.9 00:12:53 10° W 00:17:02 68° N 00:21:11 10° E
STARLINK-1103 4.0 00:13:30 10° WNW 00:17:24 40° SSW 00:17:46 39° SSW
Cosmos 1953 2.5 00:14:12 10° NNW 00:18:10 59° W 00:19:26 38° SSW
STARLINK-1236 3.6 00:15:01 10° WSW 00:19:10 85° NNW 00:23:21 10° ENE
Cosmos 1340 Rocket 2.8 00:15:43 10° NNW 00:19:45 75° W 00:21:08 40° S
STARLINK-1198 3.9 00:17:51 10° W 00:22:00 68° N 00:26:08 10° E
STARLINK-1101 4.1 00:18:30 10° WNW 00:22:20 37° SW 00:22:33 37° SSW
Cosmos 1271 Rocket 3.4 00:21:40 29° SW 00:23:11 46° WNW 00:26:59 10° N
Cosmos 1461 4.2 00:19:36 10° WSW 00:23:36 40° NW 00:27:48 10° NNE
COSMOS 2487 2.5 00:22:41 10° NNW 00:26:10 74° ENE 00:27:18 39° SE
Cosmos 1833 4.2 00:21:16 10° NW 00:26:51 64° WSW 00:29:45 28° S
STARLINK-1199 3.9 00:22:53 10° W 00:27:01 68° N 00:31:10 10° E
STARLINK-1102 4.2 00:23:31 10° W 00:27:19 35° SW 00:27:22 35° SSW
Cosmos 1992 Rocket 3.9 00:25:15 31° SSW 00:27:50 80° ESE 00:33:04 10° NNE
STARLINK-1269 3.7 00:24:58 10° W 00:29:07 81° NNW 00:33:17 10° ENE
Cosmos 1707 3.6 00:29:05 28° SW 00:30:40 42° WNW 00:34:25 10° N
STARLINK-1210 3.9 00:27:51 10° W 00:32:00 69° N 00:36:08 10° E
STARLINK-1111 4.3 00:28:31 10° W 00:32:07 33° SW 00:32:07 33° SW
STARLINK-1200 3.7 00:29:58 10° W 00:34:08 79° NNW 00:38:18 10° ENE
USA 215 4.4 00:33:07 21° SW 00:34:34 23° SW 00:39:33 10° WNW
Cosmos 1626 3.7 00:34:31 20° SE 00:35:59 26° E 00:39:07 10° NNE
Cosmos 1656 Rocket 3.7 00:33:51 29° SSW 00:36:49 73° ESE 00:42:25 10° NNE
Cosmos 1606 Rocket 3.4 00:32:34 10° N 00:36:56 89° E 00:38:48 33° S
STARLINK-1219 3.9 00:32:50 10° W 00:36:59 70° N 00:41:08 10° E
STARLINK-1073 4.5 00:33:32 10° W 00:36:54 31° SW 00:36:54 31° SW
In-Cosmos 22 4.1 00:35:37 29° SSW 00:38:25 79° WNW 00:43:44 10° N
STARLINK-1192 3.7 00:34:57 10° W 00:39:07 77° N 00:43:17 10° ENE
FALCON 9 R/B 4.0 00:38:25 22° SSE 00:40:03 23° SSE 00:50:46 10° ESE
EO 1 Delta rocket 4.4 00:34:53 10° N 00:41:37 84° WNW 00:44:41 28° SSW
STARLINK-1211 3.9 00:37:49 10° WNW 00:41:58 70° N 00:46:06 10° E
Meteor 1-16 Rocket 4.5 00:37:08 10° NNW 00:42:36 54° W 00:45:20 28° SSW
CZ-4 R/B 3.8 00:38:11 10° NNE 00:43:05 83° ESE 00:45:23 31° S
STARLINK-1244 3.8 00:39:56 10° W 00:44:05 75° N 00:48:15 10° ENE
Cosmos 2297 Rocket 3.8 00:41:05 10° NNW 00:46:13 34° NE 00:51:18 10° ESE
APEX 4.4 00:42:04 23° SW 00:46:24 83° WNW 00:51:55 10° NNE
ERBS 4.2 00:43:54 10° WNW 00:46:56 31° N 00:49:58 10° ENE
STARLINK-1245 3.8 00:42:49 10° WNW 00:46:58 71° N 00:51:07 10° E
Cosmos 2292 Rocket 3.8 00:45:34 29° SW 00:47:28 51° WNW 00:51:00 10° N
STARLINK-1138 3.8 00:44:56 10° W 00:49:05 74° N 00:53:14 10° ENE
NOSS 3-2 (C) 4.4 00:42:13 10° NW 00:49:20 47° WSW 00:54:29 22° S
NOSS 7 (A) 4.5 00:48:54 55° SSW 00:49:27 78° SE 00:52:23 10° NE
SL-4 R/B 3.3 00:49:12 28° SSE 00:50:04 30° SE 00:54:12 10° E
NOSS 5 (C) 4.3 00:47:56 10° NW 00:51:02 83° NE 00:53:30 19° SE
STARLINK-1203 3.8 00:47:31 10° W 00:51:44 73° N 00:55:56 10° ENE
PSLV R/B 3.6 00:47:03 10° NNE 00:51:44 89° SE 00:53:53 31° SSW
STARLINK-1233 3.8 00:47:47 10° WNW 00:51:57 73° N 00:56:06 10° E
STARLINK-1143 3.8 00:49:55 10° W 00:54:04 72° N 00:58:13 10° ENE
Aureole 3 3.9 00:50:48 10° NNW 00:54:16 33° W 00:55:01 29° WSW
Cosmos 1674 2.6 00:53:21 38° SSW 00:54:40 74° WNW 00:58:27 10° N
STARLINK-1204 3.8 00:52:47 10° WNW 00:56:57 74° N 01:01:06 10° E
Cosmos 1777 Rocket 4.0 00:52:58 10° NNW 00:58:14 89° ENE 01:01:54 20° SSE
ATLAS CENTAUR R/B 2.1 00:56:56 30° SSE 00:58:23 39° ESE 01:02:16 10° NE
Timation 2 Rocket 4.0 00:51:55 10° NNW 00:58:23 81° ENE 01:04:30 10° SE
STARLINK-1241 3.8 00:54:54 10° W 00:59:03 71° N 01:03:12 10° ENE
NOSS 3-4 (A) 3.4 00:57:30 25° SSW 01:01:09 72° SE 01:07:33 10° NE
NOSS 3-4 (C) 3.4 00:57:38 25° SSW 01:01:14 71° SE 01:07:39 10° NE
STARLINK-1238 3.8 00:57:45 10° WNW 01:01:55 75° N 01:06:04 10° E
SL-16 R/B 3.2 00:56:26 10° SE 01:02:23 54° ENE 01:08:23 10° N
Spot 1 4.3 01:00:54 24° SSE 01:03:42 87° ENE 01:08:38 10° NNW
STARLINK-1239 3.9 00:59:53 10° W 01:04:03 70° N 01:08:11 10° E
ATLAS 3B R/B 2.6 00:58:42 10° NW 01:05:27 71° SW 01:12:25 10° SSE
STARLINK-1201 3.7 01:02:45 10° WNW 01:06:55 77° NNE 01:11:04 10° E
STARLINK-1240 3.9 01:04:54 10° W 01:09:03 69° N 01:13:11 10° E
CENTAUR R/B 3.6 01:01:34 10° NW 01:09:05 44° WSW 01:14:47 20° S
Cosmos 1244 Rocket 4.5 01:07:53 24° S 01:11:52 87° E 01:18:06 10° N
STARLINK-1206 3.7 01:07:44 10° WNW 01:11:54 79° NNE 01:16:03 10° E
BREEZE-M DEB (TANK) 2.6 01:12:39 25° SE 01:12:39 25° SE 01:14:04 10° E
Cosmos 1867 3.9 01:08:44 10° NW 01:13:54 45° WSW 01:16:44 24° S
Cosmos 1908 4.2 01:10:31 10° NNW 01:13:59 33° W 01:15:09 27° SW
STARLINK-1216 3.9 01:09:53 10° W 01:14:02 69° N 01:18:10 10° E
STARLINK-1205 3.7 01:12:43 10° WNW 01:16:53 81° NNE 01:21:02 10° ESE
Cosmos 1892 Rocket 3.5 01:14:51 29° SSW 01:17:03 80° W 01:21:29 10° N
Cosmos 1745 Rocket 4.5 01:12:45 18° SSE 01:17:16 54° E 01:23:13 10° NNE
STARLINK-1237 3.9 01:14:53 10° W 01:19:02 68° N 01:23:10 10° E
RESURS DK-1 3.1 01:19:17 25° SSE 01:21:08 40° ESE 01:25:02 10° NE
STARLINK-1218 3.6 01:17:41 10° WNW 01:21:51 83° NNE 01:26:01 10° ESE
Cosmos 2227 Rocket 3.2 01:16:32 10° NNW 01:22:03 48° NE 01:27:31 10° SE
Cosmos 1356 Rocket 3.7 01:18:40 10° N 01:22:47 64° ENE 01:25:49 18° SSE
STARLINK-1202 3.9 01:19:53 10° W 01:24:02 68° N 01:28:10 10° E
Cosmos 1726 Rocket 4.2 01:20:56 10° NNW 01:24:57 38° W 01:26:45 26° SW
Meteor 1-24 Rocket 3.6 01:22:03 25° S 01:25:18 89° E 01:30:45 10° NNE
Cosmos 2369 Rocket 3.5 01:20:50 10° WSW 01:26:00 35° NW 01:31:11 10° NNE
CZ-2D R/B 2.9 01:21:24 10° NNE 01:26:25 42° E 01:30:15 16° SSE
STARLINK-1254 3.6 01:22:40 10° WNW 01:26:51 86° NNE 01:31:00 10° ESE
Helios 1B rocket 3.3 01:23:04 10° N 01:26:56 39° WNW 01:29:11 21° SW
Meteor 2-14 Rocket 4.4 01:24:00 23° SSW 01:27:59 80° W 01:34:10 10° N
ADEOS II 4.1 01:24:55 10° NE 01:28:44 20° E 01:32:33 10° SE
ATLAS 2AS CENTAUR R/B 3.1 01:23:17 16° SW 01:30:00 83° NW 01:37:56 10° NE
STARLINK-1231 3.6 01:27:40 10° WNW 01:31:51 88° NNE 01:36:00 10° ESE
STARLINK-1228 3.3 01:30:21 10° WNW 01:33:33 44° SSW 01:36:45 10° SE
CZ-4C R/B 3.5 01:30:46 20° SSE 01:33:40 87° E 01:38:04 10° NNW
STARLINK-1246 3.9 01:29:51 10° W 01:34:00 68° N 01:38:08 10° E
STARLINK-1234 3.1 01:31:47 10° WNW 01:34:47 43° SSW 01:37:03 15° SE
STARLINK-1212 2.9 01:33:07 10° WNW 01:36:10 52° SSW 01:39:12 10° SE
Resurs 1-4 Rocket 2.7 01:31:04 10° NNE 01:36:14 51° E 01:40:11 17° S
STARLINK-1105 2.9 01:33:36 10° WNW 01:36:38 52° SSW 01:39:39 10° SE
Cosmos 1943 Rocket 4.0 01:32:16 10° W 01:36:49 25° NW 01:41:25 10° NNE
DELTA 2 DEB (DPAF) 4.2 01:34:10 23° S 01:36:49 63° WSW 01:41:17 10° NNW
STARLINK-1232 3.5 01:32:39 10° WNW 01:36:50 89° S 01:40:59 10° ESE
STARLINK-1209 3.2 01:34:03 10° W 01:37:03 40° SSW 01:38:42 21° SSE
STARLINK-1247 2.9 01:34:30 10° WNW 01:37:33 51° SSW 01:40:36 10° SE
STARLINK-1227 2.9 01:34:58 10° WNW 01:38:00 51° SSW 01:41:00 10° SE
Meteor 2-5 Rocket 4.0 01:35:17 22° SW 01:38:49 58° WNW 01:44:22 10° N
STARLINK-1226 2.9 01:35:49 10° WNW 01:38:52 50° SSW 01:41:54 10° SE
STARLINK-1224 3.9 01:34:50 10° W 01:38:59 68° N 01:43:07 10° E
STARLINK-1215 3.0 01:36:46 10° WNW 01:39:49 50° SSW 01:42:51 10° SE
STARLINK-52 4.2 01:39:41 24° SSE 01:40:08 25° SE 01:42:51 10° E
STARLINK-1217 3.0 01:38:32 10° WNW 01:41:34 48° SSW 01:44:36 10° SE
STARLINK-1208 3.5 01:37:37 10° WNW 01:41:47 86° SSW 01:45:56 10° ESE
STARLINK-1229 3.0 01:39:28 10° WNW 01:42:29 48° SSW 01:45:31 10° SE
STARLINK-1270 3.0 01:40:19 10° WNW 01:43:21 47° SSW 01:46:23 10° SE
NPP 4.2 01:38:24 10° NNE 01:43:41 51° E 01:47:57 15° S
STARLINK-1225 3.9 01:39:50 10° W 01:43:59 68° N 01:48:08 10° E
STARLINK-1189 3.0 01:42:10 10° WNW 01:45:11 46° SSW 01:48:11 10° SE
Meteor 1-29 4.2 01:42:31 10° N 01:45:33 30° WNW 01:47:11 20° WSW
STARLINK-1188 3.1 01:43:03 10° WNW 01:46:04 45° SSW 01:49:04 10° SE
STARLINK-1235 3.3 01:43:47 10° W 01:46:42 37° SSW 01:49:36 10° SE
STARLINK-1271 3.5 01:42:37 10° WNW 01:46:47 83° SSW 01:50:56 10° ESE
STARLINK-1187 3.2 01:44:11 10° W 01:47:08 41° SSW 01:50:04 10° SE
Cosmos 1898 Rocket 4.3 01:42:11 10° NNW 01:47:28 55° ENE 01:52:41 10° SE
STARLINK-1191 3.1 01:45:33 10° WNW 01:48:31 43° SSW 01:51:29 10° SE
Cosmos 2058 Rocket 3.9 01:44:49 10° NNW 01:48:50 35° W 01:51:01 22° SW
Lacrosse 4 Rocket 3.7 01:45:02 10° NNW 01:48:53 29° NE 01:52:39 10° E
STARLINK-1230 3.9 01:44:49 10° W 01:48:57 69° N 01:53:06 10° E
STARLINK-1221 3.1 01:46:24 10° WNW 01:49:23 43° SSW 01:52:21 10° SE
Starlink 7 placeholder 2.2 01:49:43 47° ESE 01:49:43 47° ESE 01:51:23 10° ENE
STARLINK-1222 3.1 01:47:19 10° WNW 01:50:16 42° SSW 01:53:14 10° SE
STARLINK-1214 3.1 01:48:13 10° W 01:51:11 42° SSW 01:54:08 10° SE
STARLINK-1154 3.5 01:47:36 10° WNW 01:51:46 80° SSW 01:55:55 10° ESE
SJ 16-02 1.8 01:48:43 10° NNW 01:53:08 62° ENE 01:57:31 10° SE
STARLINK-1243 3.9 01:49:48 10° W 01:53:57 69° N 01:58:06 10° E
CZ-4C R/B 4.1 01:51:35 10° SSE 01:54:47 17° ESE 01:58:19 10° ENE
Cosmos 2084 4.3 01:52:18 21° S 01:54:53 42° SE 01:59:07 10° NE
SL-14 R/B 3.9 01:54:05 22° SW 01:56:11 43° WNW 01:59:53 10° N
SL-08 ROCKET BODY 4.3 01:52:05 18° S 01:56:32 87° W 02:02:25 10° N
STARLINK-1197 3.5 01:52:35 10° WNW 01:56:44 76° SSW 02:00:53 10° ESE
Cosmos 1937 Rocket 4.5 01:52:37 10° NNW 01:57:43 49° ENE 02:02:49 10° SE
Cosmos 1300 3.7 01:54:52 10° NNW 01:58:18 32° W 02:00:00 22° SW
STARLINK-1236 3.9 01:54:48 10° W 01:58:57 70° N 02:03:05 10° E
COSMOS 2455 3.1 01:54:47 16° SW 01:59:40 65° NW 02:05:42 10° NE
Meteor 2-10 Rocket 3.7 01:54:51 10° N 02:00:16 76° ENE 02:05:26 10° SSE
STARLINK-1198 3.5 01:57:32 10° WNW 02:01:41 73° SSW 02:05:49 10° ESE
Cosmos 921 Rocket 3.0 02:00:21 21° SSW 02:03:05 73° WNW 02:07:26 10° NNE
Cosmos 1174 4.3 02:03:35 17° WSW 02:05:53 45° NW 02:09:38 10° NNE
STARLINK-1199 3.5 02:02:33 10° WNW 02:06:42 70° SSW 02:10:49 10° ESE
Cosmos 1709 Rocket 4.2 02:01:48 13° S 02:07:21 70° E 02:13:27 10° NNE
Cosmos 1386 Rocket 4.5 02:02:40 17° SSW 02:07:26 77° W 02:13:38 10° N
STARLINK-1269 3.9 02:04:45 10° WNW 02:08:54 72° N 02:13:03 10° E
Cosmos 1626 Rocket 3.6 02:06:42 20° SSW 02:09:39 66° WNW 02:13:59 10° N
STARLINK-60 2.9 02:08:51 20° WSW 02:10:55 72° SSE 02:14:08 10° ENE
Cosmos 1626 3.4 02:09:03 17° WSW 02:11:10 28° WNW 02:14:27 10° N
STARLINK-1210 3.5 02:07:31 10° WNW 02:11:39 66° SSW 02:15:45 10° ESE
STARLINK-1200 3.8 02:09:46 10° WNW 02:13:55 73° N 02:18:04 10° E
Cosmos 2219 3.2 02:09:27 10° NW 02:15:03 61° WSW 02:20:35 10° SSE
STARLINK-1219 3.6 02:12:30 10° WNW 02:16:36 63° SSW 02:20:42 10° SE
STARLINK-1192 3.8 02:14:45 10° WNW 02:18:54 75° N 02:23:03 10° E
Cosmos 1980 Rocket 4.3 02:16:35 10° SE 02:20:21 19° E 02:24:08 10° ENE
STARLINK-1211 3.6 02:17:28 10° WNW 02:21:34 60° SSW 02:25:39 10° SE
ERBS 4.1 02:20:42 10° NW 02:23:48 35° NNE 02:26:56 10° E
STARLINK-1244 3.8 02:19:43 10° WNW 02:23:52 76° N 02:28:02 10° E
Cosmos 192 4.4 02:20:35 15° SSW 02:24:40 77° ESE 02:29:39 10° NNE
UNK 4.4 02:22:20 16° SSW 02:25:42 39° W 02:30:02 10° NNW
ERS-2 3.6 02:22:37 10° SE 02:26:03 39° ENE 02:29:31 10° N
Cosmos 220 Rocket 4.3 02:22:56 17° SW 02:26:17 62° WNW 02:30:42 10° NNE
STARLINK-1245 3.6 02:22:28 10° WNW 02:26:33 56° SSW 02:30:36 10° SE
Cosmos 1437 4.1 02:24:54 16° WSW 02:26:34 25° WNW 02:29:08 10° N
STARLINK-1364 4.5 02:25:55 16° S 02:27:27 22° SE 02:29:58 10° E
STARLINK-1376 4.5 02:26:15 16° S 02:27:49 22° SE 02:30:19 10° E
AQUA 3.8 02:23:11 10° NNE 02:27:59 86° WNW 02:32:11 13° SSW
Cosmos 1812 Rocket 4.0 02:23:43 10° NNW 02:28:00 45° W 02:31:37 14° SSW
STARLINK-1360 4.5 02:26:30 16° S 02:28:04 22° SE 02:30:36 10° E
STARLINK-1361 4.5 02:26:56 16° S 02:28:30 22° SE 02:31:02 10° E
STARLINK-1367 4.5 02:27:10 16° S 02:28:47 23° SE 02:31:20 10° E
STARLINK-1138 3.8 02:24:42 10° WNW 02:28:52 78° NNE 02:33:01 10° E
STARLINK-1366 4.5 02:27:33 16° S 02:29:08 23° SE 02:31:41 10° E
SL-4 R/B 2.3 02:24:45 11° WSW 02:29:26 74° SSE 02:34:05 10° ENE
CZ-4B R/B 3.6 02:25:21 10° NNE 02:30:30 80° WNW 02:35:12 13° SSW
Cosmos 2297 Rocket 2.3 02:25:03 10° NW 02:30:35 57° WSW 02:36:06 10° S
STARLINK-1233 3.7 02:27:27 10° WNW 02:31:30 53° SSW 02:35:32 10° SE
STARLINK-1203 3.8 02:27:30 10° WNW 02:31:44 80° NNE 02:35:57 10° E
STARLINK-1143 3.7 02:29:41 10° WNW 02:33:51 80° NNE 02:38:01 10° E
Cosmos 2082 3.8 02:28:37 10° NNW 02:34:20 87° ENE 02:39:59 10° SSE
STARLINK-1204 3.8 02:32:27 10° WNW 02:36:28 50° SSW 02:40:29 10° SE
Cosmos 990 Rocket 4.0 02:31:15 10° NNW 02:36:29 65° WSW 02:41:40 10° S
ATLAS CENTAUR R/B 2.5 02:33:16 10° WSW 02:37:20 38° NW 02:41:08 10° NNE
CBERS-1 4.1 02:32:12 10° NNE 02:37:21 83° ESE 02:42:28 10° SSW
STARLINK-1350 4.5 02:35:22 14° SSW 02:37:37 27° SE 02:40:36 10° E
FALCON 9 DEB 3.5 02:35:24 16° SW 02:37:55 48° SSE 02:41:17 10° ENE
STARLINK-1241 3.7 02:34:40 10° WNW 02:38:50 82° NNE 02:43:00 10° ESE
STARLINK-29 2.9 02:36:59 14° WSW 02:39:35 67° SSE 02:42:45 10° ENE
STARLINK-1352 4.5 02:37:40 14° SSW 02:40:02 28° SE 02:43:06 10° E
Cosmos 1455 2.5 02:37:09 10° NNW 02:40:47 48° W 02:44:16 11° S
STARLINK-1238 3.8 02:37:25 10° WNW 02:41:25 47° SSW 02:45:24 10° SE
STARLINK-1368 4.4 02:39:45 14° SSW 02:42:11 29° SE 02:45:17 10° E
Cosmos 1602 Rocket 4.2 02:39:06 14° SW 02:42:33 40° WNW 02:46:39 10° N
Cosmos 1825 Rocket 3.5 02:38:21 10° S 02:42:36 87° ESE 02:46:58 10° N
STARLINK-1239 3.7 02:39:38 10° WNW 02:43:48 85° NNE 02:47:59 10° ESE
STARLINK-1369 4.4 02:41:37 14° SSW 02:44:05 30° SE 02:47:11 10° E
ATLAS CENTAUR R/B 2.6 02:42:14 10° WNW 02:45:00 33° SW 02:50:35 10° SSE
Meteor 1-28 Rocket 3.8 02:42:05 10° SSE 02:45:49 59° ENE 02:49:33 10° N
Cosmos 2263 Rocket 4.0 02:40:53 10° NNW 02:46:03 35° NE 02:51:10 10° ESE
SL-16 R/B 3.3 02:41:07 11° SSW 02:46:16 33° W 02:51:49 10° NNW
STARLINK-1201 3.9 02:42:25 10° WNW 02:46:23 44° SSW 02:50:20 10° SE
STARLINK-1372 4.3 02:43:57 13° SSW 02:46:33 31° SE 02:49:42 10° E
STARLINK-1378 4.3 02:46:05 13° SSW 02:48:46 32° SE 02:51:57 10° E
STARLINK-1240 3.6 02:44:38 10° WNW 02:48:48 87° NNE 02:52:58 10° ESE
GP-B 3.3 02:44:47 10° N 02:49:10 56° W 02:53:30 10° SSW
STARLINK-1329 4.3 02:46:35 13° SSW 02:49:17 32° SE 02:52:29 10° E
STARLINK-1365 4.2 02:47:17 13° SSW 02:50:00 34° SSE 02:53:13 10° E
IRS-1D 3.7 02:44:53 10° NNE 02:50:16 80° WNW 02:55:33 10° SSW
Cosmos 841 Rocket 4.5 02:45:36 10° S 02:50:32 44° ESE 02:55:30 10° NE
STARLINK-1379 4.2 02:48:13 13° SSW 02:50:58 33° SSE 02:54:11 10° E
STARLINK-1206 4.0 02:47:25 10° WNW 02:51:21 42° SSW 02:55:15 10° SE
STARLINK-1362 4.2 02:48:47 13° SSW 02:51:33 33° SSE 02:54:48 10° E
Cosmos-2242 3.2 02:48:09 10° NNW 02:52:21 55° W 02:56:29 10° S
ATLAS 5 CENTAUR R/B 3.7 02:52:16 10° NNW 02:53:13 12° N 02:54:15 10° NNE
Cosmos 1400 Rocket 3.1 02:49:23 10° N 02:53:31 75° ENE 02:57:38 10° SSE
STARLINK-1216 3.6 02:49:36 10° WNW 02:53:47 90° SSW 02:57:56 10° ESE
STARLINK-1373 4.2 02:50:59 12° SSW 02:53:51 35° SSE 02:57:07 10° E
Cosmos 2221 4.0 02:50:09 10° N 02:54:13 39° ENE 02:58:18 10° SE
ATLAS 3B R/B 4.1 02:50:48 10° WNW 02:55:06 18° WSW 02:59:28 10° SSW
STARLINK-1390 4.1 02:52:59 12° SSW 02:55:54 35° SSE 02:59:10 10° E
COBE Rocket 4.1 02:50:58 10° SSE 02:55:54 81° ENE 03:01:00 10° N
STARLINK-1205 4.0 02:52:25 10° WNW 02:56:18 39° SSW 03:00:10 10° SE
STARLINK-1237 3.6 02:54:36 10° WNW 02:58:46 87° SSW 03:02:56 10° ESE
RESURS DK-1 3.7 02:55:35 10° WSW 02:59:16 30° NW 03:02:58 10° NNE
Cosmos 2184 Rocket 4.3 02:54:05 10° S 03:00:12 68° E 03:06:20 10° NNE
STARLINK-1218 4.1 02:57:24 10° WNW 03:01:14 37° SW 03:05:03 10° SSE
SL-08 R/B 3.3 02:56:45 10° S 03:01:25 65° WSW 03:06:03 10° NNW
CZ-4C R/B 3.8 02:58:15 10° SSE 03:01:47 56° ENE 03:05:22 10° N
STARLINK-1202 3.6 02:59:35 10° WNW 03:03:45 84° SSW 03:07:55 10° ESE
IRS-P3 4.2 03:00:30 10° NNE 03:05:52 82° WNW 03:11:12 10° SSW
Cosmos 2227 Rocket 2.8 03:00:50 10° NW 03:06:01 37° WSW 03:11:09 10° S
STARLINK-1254 4.2 03:02:25 10° W 03:06:12 35° SW 03:09:58 10° SSE
Cosmos 1703 3.5 03:02:20 10° SSW 03:06:14 56° WNW 03:10:09 10° N
CZ-2D R/B 3.0 03:01:39 10° N 03:06:25 35° WNW 03:11:06 10° SW
Cosmos 2181 Rocket 4.3 03:00:39 10° NNW 03:06:50 52° W 03:13:02 10° SSW
ADEOS II 2.2 03:03:44 10° NNE 03:09:00 72° WNW 03:14:13 10° SSW
Cosmos 1763 Rocket 3.5 03:04:05 10° SSW 03:09:13 81° WNW 03:14:20 10° NNE
Cosmos 2150 Rocket 4.5 03:04:57 10° NNW 03:10:10 67° ENE 03:15:18 10° SE
STARLINK-1231 4.3 03:07:26 10° W 03:11:10 32° SW 03:14:53 10° SSE
Cosmos 1697 Rocket 2.9 03:05:38 10° SSW 03:11:16 73° ESE 03:16:57 10° NNE
Cosmos 1315 Rocket 3.9 03:09:42 10° N 03:13:31 46° ENE 03:17:18 10° SSE
STARLINK-1246 3.6 03:09:32 10° WNW 03:13:42 78° SSW 03:17:50 10° ESE
CZ-2C R/B 4.0 03:12:14 10° NNE 03:15:44 39° E 03:19:14 10° SSE
Resurs 1-4 Rocket 3.3 03:11:18 10° N 03:15:51 30° WNW 03:20:23 10° WSW
STARLINK-52 2.9 03:12:47 10° WSW 03:16:00 89° NNW 03:19:14 10° ENE
STARLINK-1232 4.4 03:12:27 10° W 03:16:06 30° SW 03:19:46 10° SSE
STARLINK-1224 3.6 03:14:32 10° WNW 03:18:41 74° SSW 03:22:48 10° ESE
ARIANE 5 R/B 2.5 03:15:27 10° NNE 03:20:35 87° W 03:25:36 10° SSW
Cosmos 1758 Rocket 4.4 03:17:01 10° SW 03:21:00 35° WNW 03:25:03 10° N
ATLAS 2AS CENTAUR R/B 4.2 03:14:36 10° W 03:22:03 40° NNW 03:29:16 10° NE
